Location: Unspecified
(0.0000°N, 0.0000°E)
Time: 12:05:43
(UTC+00:00)

ISS - Visible Passes

Search period start: 13 July 2020 00:00
Search period end: 23 July 2020 00:00
Orbit: 417 x 419 km, 51.6° (Epoch: 14 July)

Date Brightness Start Highest point End Pass type
(mag) Time Alt. Az. Time Alt. Az. Time Alt. Az.
13 Jul -3.9 18:50:15 10° SSW 18:53:36 74° SE 18:56:55 10° NE visible
15 Jul -0.6 05:39:12 10° N 05:41:40 19° NE 05:44:09 10° ESE visible
15 Jul -0.6 18:51:50 10° WSW 18:54:19 19° NW 18:56:48 10° N visible
17 Jul -3.8 05:39:03 10° NW 05:42:22 73° SW 05:45:42 10° SSE visible
18 Jul -2.4 04:51:16 10° NNW 04:54:26 42° NE 04:57:37 10° SE visible
19 Jul -1.0 04:05:33 17° NNE 04:06:28 18° NE 04:08:52 10° E visible
19 Jul -1.9 05:41:14 10° W 05:43:02 14° SW 05:44:51 10° SSW visible
20 Jul -2.1 04:56:35 20° S 04:56:35 20° S 04:58:03 10° S visible
